Location: Boussan
(43.2448°N, 0.8897°E)
Time: 01:03:09
(UTC+00:00)

Daily predictions for brighter satellites

Satellite Brightness Start Highest point End
(mag) Time Altitude Azimuth Time Altitude Azimuth Time Altitude Azimuth
ADEOS II 3.8 02:15:50 10° NNE 02:18:20 29° NNE 02:18:20 29° NNE
IDEFIX/ARIANE 42P 4.2 02:18:21 10° NNE 02:22:24 30° E 02:22:24 30° E
USA 234 4.5 02:20:53 10° E 02:26:43 36° NNE 02:30:48 18° NNW
Cosmos 1238 Rocket 4.5 02:28:06 10° N 02:33:16 53° NNE 02:33:16 53° NNE
Cosmos 1697 Rocket 4.3 02:40:57 25° NNW 02:40:57 25° NNW 02:43:42 10° N
Cosmos 1980 Rocket 3.3 02:47:19 37° N 02:47:19 37° N 02:50:57 10° NNE
Cosmos 2263 Rocket 4.0 02:43:29 10° NNW 02:45:20 21° NNW 02:45:20 21° NNW
ASTEX 1 4.4 02:47:55 10° N 02:51:25 44° NNE 02:51:25 44° NNE
Cosmos 2322 Rocket 3.0 02:54:20 44° SE 02:54:54 45° ESE 03:00:18 10° NE
Cosmos 1898 Rocket 4.3 02:52:31 10° N 02:57:38 50° ENE 03:02:46 10° SE
Spot 4 Rocket 4.4 02:56:05 10° NNE 03:01:00 60° E 03:01:00 60° E
Lacrosse 5 3.6 03:01:39 23° NNW 03:01:39 23° NNW 03:05:18 10° NNE
SL-16 R/B 2.3 03:06:39 69° SE 03:06:52 70° ESE 03:12:31 10° NNE
Resurs 1-4 Rocket 4.3 03:07:05 10° NNW 03:08:01 13° NNW 03:08:01 13° NNW
Cosmos 1727 Rocket 4.5 03:09:26 27° SSE 03:12:53 60° E 03:19:05 10° NNE
Cosmos 1339 Rocket 4.3 03:12:47 77° SW 03:13:13 82° W 03:19:26 10° N
CZ-2D R/B 4.3 03:14:08 10° NNW 03:14:55 12° NNW 03:14:55 12° NNW
Cosmos 1937 Rocket 4.2 03:12:08 10° NNW 03:17:10 53° ENE 03:22:10 10° SE
IRIDIUM 114 4.5 03:16:57 10° N 03:22:11 71° E 03:24:29 34° SSE
Cosmos 1536 4.1 03:21:23 10° N 03:25:14 40° ENE 03:29:04 10° SSE
Cosmos 1763 Rocket 3.4 03:25:16 78° SSW 03:25:38 90° WNW 03:30:58 10° NNE
CZ-2D R/B 4.3 03:24:25 10° N 03:27:24 43° N 03:27:24 43° N
ARIANE 5 R/B 3.0 03:26:22 10° N 03:30:24 44° NW 03:30:24 44° NW
IRIDIUM 103 4.2 03:26:05 10° N 03:31:20 86° E 03:33:37 35° S
NOSS 3-4 (A) 4.1 03:25:12 10° NNW 03:32:13 68° NE 03:39:58 10° SE
NOSS 3-4 (C) 4.2 03:25:19 10° NNW 03:32:19 68° NE 03:40:04 10° SE
Cosmos 1707 Rocket 3.7 03:32:27 61° SE 03:32:59 68° E 03:37:19 10° NNE
USA 267 3.2 03:28:24 10° NE 03:34:56 75° NW 03:36:57 47° WSW
ADEOS Rocket 4.1 03:30:57 10° SE 03:37:11 47° ENE 03:42:51 10° N
NOSS 3-3 (A) 4.5 03:38:58 39° WNW 03:39:59 42° NW 03:46:18 10° NNE
CZ-4B R/B 4.4 03:37:59 10° ESE 03:40:09 17° ENE 03:42:21 10° NNE
ERS-2 3.7 03:37:54 10° SE 03:41:16 36° ENE 03:44:40 10° N
Cosmos 540 Rocket 3.8 03:38:54 31° S 03:41:18 65° ESE 03:46:27 10° NNE
Meteor 1-5 Rocket 4.1 03:36:33 10° NNW 03:41:47 57° W 03:42:00 56° WSW
Cosmos 44 Rocket 3.2 03:44:48 54° SSW 03:45:51 80° ESE 03:50:43 10° NE
MSX 3.7 03:40:30 10° N 03:46:16 72° WNW 03:48:33 38° SSW
Cosmos 1733 Rocket 3.7 03:44:13 10° N 03:48:30 55° E 03:52:43 10° SSE
IRIDIUM 106 4.2 03:44:26 10° N 03:49:38 66° W 03:51:58 32° SSW
Gbstr 26 Del rocket 4.4 03:46:18 28° WNW 03:50:28 56° SW 03:57:30 10° SSE
Cosmos 990 Rocket 4.1 03:46:20 10° NNW 03:51:22 51° WSW 03:56:23 10° S
Meteor 1-10 Rocket 4.4 03:51:45 43° WSW 03:53:10 52° WNW 03:58:56 10° N
PAYLOAD A 3.9 03:49:04 10° NNE 03:53:47 75° ESE 03:57:13 19° S
Landsat 5 3.5 03:50:12 10° S 03:54:42 77° WSW 03:59:10 10° NNW
Cosmos 2333 Rocket 4.0 03:50:08 10° SSE 03:55:03 30° ESE 04:00:00 10° NE
ATLAS 2AS CENTAUR R/B 2.9 03:48:31 10° NW 03:56:02 77° NE 04:02:54 10° SE
Cosmos 2173 Rocket 4.2 03:50:27 10° N 03:56:50 76° E 04:03:12 10° SSE
BREEZE M DEB (TANK) 3.8 03:44:00 10° WNW 03:58:07 60° SW 04:02:16 10° SE
SL-4 R/B 2.7 03:57:30 42° WNW 03:58:30 50° NNW 04:03:09 10° NE
CZ-2C R/B 3.2 03:55:45 10° N 03:58:54 43° NW 03:58:54 43° NW
ADEOS II 3.9 03:57:10 10° NNW 03:59:16 15° NW 03:59:16 15° NW
Cosmos 468 Rocket 4.5 03:59:52 38° W 04:00:38 40° WNW 04:05:36 10° N
Cosmos 1570 Rocket 4.0 03:58:30 26° SSW 04:01:33 87° WNW 04:06:56 10° NNE
IDEFIX/ARIANE 42P 3.2 03:57:51 10° N 04:02:36 35° WNW 04:03:12 34° W
BREEZE-M DEB (TANK) 3.0 03:59:36 32° WSW 04:02:56 83° SSE 04:06:10 10° ENE
PSLV R/B 3.4 03:58:51 10° NNE 04:03:05 86° ESE 04:05:43 22° SSW
USA 276 3.1 04:03:18 35° NNW 04:04:03 43° NNE 04:07:09 10° E
Cosmos 1862 Rocket 3.6 04:03:35 11° S 04:07:49 79° E 04:12:11 10° N
BREEZE-M DEB (TANK) 3.6 04:08:00 33° NW 04:09:06 44° N 04:16:03 10° ENE
USA 234 3.3 04:02:42 10° SE 04:09:14 85° NE 04:15:48 10° NW
H-2A R/B 2.2 04:08:45 10° S 04:13:01 50° W 04:17:24 10° NNW
CZ-4C R/B 4.0 04:06:45 10° NNW 04:13:34 45° NE 04:21:21 10° ESE
ALOS 3.5 04:12:27 10° NNE 04:16:55 43° E 04:21:21 10° S
PKM 3.8 04:14:43 18° NW 04:17:22 85° NE 04:21:22 10° SE
Cosmos 2360 Rocket 2.1 04:15:02 20° SW 04:19:04 72° WNW 04:24:46 10° NNE
CZ-2C R/B 2.5 04:19:37 10° N 04:24:45 65° WNW 04:29:52 10° SSW
Cosmos 372 Rocket 3.8 04:23:10 10° NNW 04:28:19 77° WSW 04:33:24 10° SSE
Cosmos 2016 Rocket 3.9 04:22:29 10° N 04:28:37 88° ENE 04:34:43 10° S
Cosmos 1000 Rocket 4.5 04:24:32 10° SSW 04:30:39 63° W 04:36:45 10° N
Cosmos 1980 Rocket 4.3 04:29:21 10° NW 04:30:45 11° NW 04:32:09 10° NNW
Cosmos 1484 Rocket 3.2 04:30:12 10° NNE 04:34:12 67° ESE 04:38:11 10° S
ATLAS CENTAUR Rocket 4.2 04:28:24 17° WSW 04:35:09 27° SSW 04:39:36 10° SE
Cosmos 2061 Rocket 4.0 04:29:01 10° N 04:35:30 84° W 04:41:54 10° S
Cosmos 1515 4.1 04:32:33 10° S 04:36:17 65° E 04:40:03 10° NNE
X-37B 2.5 04:36:50 16° SSW 04:36:50 16° SSW 04:38:36 10° S
Cosmos 1844 Rocket 2.6 04:31:38 10° NNW 04:37:16 71° WSW 04:42:53 10° SSE
Cosmos 2322 Rocket 3.1 04:36:12 20° W 04:39:06 30° NW 04:44:06 10° N
Cosmos 2278 Rocket 4.3 04:37:03 10° N 04:41:57 29° NE 04:46:49 10° ESE
Okean 1 3.2 04:40:15 10° SSW 04:44:18 74° W 04:48:21 10° N
Lacrosse 5 4.1 04:42:28 10° NW 04:45:46 17° N 04:49:03 10° NE
Cosmos 1844 3.6 04:40:30 10° NNW 04:46:03 73° WSW 04:51:35 10° SSE
COSMO-SKYMED 1 3.7 04:42:47 10° SE 04:46:57 48° ENE 04:51:08 10° N
Meteor 1-31 Rocket 2.9 04:43:15 10° NNE 04:47:06 76° E 04:50:57 10° S
Cosmos 1864 Rocket 4.4 04:43:49 10° N 04:50:03 75° W 04:56:11 10° S
Cosmos 1437 Rocket 2.9 04:47:24 10° SSW 04:51:05 48° WNW 04:54:50 10° N
Cosmos 1725 Rocket 3.9 04:45:07 10° N 04:51:19 76° W 04:57:27 10° S
SL-16 R/B 3.6 04:48:33 15° W 04:51:31 21° NW 04:55:46 10° N
Meteor 2-9 Rocket 4.3 04:46:31 10° N 04:52:00 77° E 04:57:20 10° SSE
Cosmos 2298 Rocket 4.0 04:47:51 10° NNW 04:53:09 69° WSW 04:58:24 10° S
deb Chang Zheng 4 3.5 04:49:54 10° N 04:54:07 60° WNW 04:58:18 10° SSW
Cosmos 1536 4.4 04:58:49 10° NW 05:01:17 16° W 05:03:43 10° WSW
Cosmos 1782 Rocket 3.9 04:57:55 10° N 05:02:25 73° E 05:06:51 10° SSE
Cosmos 1908 Rocket 3.6 04:59:14 10° NNW 05:03:38 59° W 05:08:02 10° S
Cosmos 1703 Rocket 3.5 04:59:50 10° SSW 05:04:08 73° W 05:08:30 10° N
Okean 1-7 2.9 05:00:30 10° S 05:04:45 79° W 05:09:01 10° N
Cosmos 2219 Rocket 2.2 05:01:17 10° SSW 05:06:57 80° WNW 05:12:41 10° NNE
Intercosmos 25 3.9 05:06:22 10° SW 05:09:40 29° WNW 05:12:31 10° NNW
Cosmos 1802 Rocket 4.5 05:04:45 10° NNW 05:10:23 37° W 05:16:04 10° SSW
CZ-4B R/B 2.7 05:07:06 10° NNE 05:10:43 82° ESE 05:14:17 10° S
CZ-4B R/B 2.4 05:09:33 10° SSW 05:12:14 24° W 05:14:59 10° NW
Cosmos 1125 Rocket 3.5 05:07:04 10° NNW 05:12:21 76° WSW 05:17:34 10° SSE
Meteor 2-4 Rocket 3.8 05:08:33 10° S 05:13:59 80° E 05:19:22 10° NNE
ERS-2 3.7 05:12:47 10° SW 05:14:57 15° W 05:17:09 10° WNW
CZ-4B R/B 4.3 05:11:01 10° N 05:15:19 53° WNW 05:19:40 10° SSW
USA 267 4.2 05:11:38 10° NE 05:17:21 34° NNW 05:23:04 10° W
Cosmos 2123 Rocket 4.4 05:13:32 10° SSW 05:19:27 44° WNW 05:25:27 10° N
Cosmos 2150 Rocket 4.4 05:15:30 10° NNW 05:20:38 43° WSW 05:25:41 10° S
ADEOS Rocket 3.8 05:17:08 10° SSW 05:22:49 30° W 05:28:04 10° NW
ATLAS CENTAUR R/B 2.2 05:18:44 10° NW 05:25:45 84° NE 05:28:43 10° SE
